Home > Products > State Listing > Nevada Data
Latest:
 RWRNV |  RWRAZ |
  [top]

000
ASUS45 KPSR 311310
RWRAZ

ARIZONA HOURLY REGIONAL WEATHER ROUNDUP
NATIONAL WEATHER SERVICE PHOENIX AZ
600 AM MST TUE MAY 31 2016

NOTE: FAIR INDICATES FEW OR NO CLOUDS BELOW 12,000 FEET WITH NO
SIGNIFICANT WEATHER AND/OR OBSTRUCTIONS TO VISIBILITY.

AZZ001>003-036-311400-
NORTHWEST ARIZONA

CITY           SKY/WX    TMP DP  RH WIND       PRES   REMARKS
KINGMAN        PTCLDY    62  28  27 CALM      29.92R
$$

AZZ004>008-015-016-018-311400-
NORTH CENTRAL ARIZONA

CITY           SKY/WX    TMP DP  RH WIND       PRES   REMARKS
GRAND CANYON   PTCLDY    38  26  62 CALM      30.11R
WILLIAMS       CLEAR     39  27  60 S8        30.17S WCI  34
PRESCOTT       CLEAR     48  32  53 S7        30.02R
FLAGSTAFF      CLEAR     35  26  69 CALM      30.12R
PAYSON         CLEAR     54  16  22 CALM      30.03R
PAGE           CLEAR     64  33  31 S3        29.97R
$$

AZZ009>014-017-311400-
NORTHEAST ARIZONA

CITY           SKY/WX    TMP DP  RH WIND       PRES   REMARKS
WINSLOW        CLEAR     46  19  34 CALM      30.02R
SAINT JOHNS    PTCLDY    47  24  40 S3        30.04R
WINDOW ROCK    PTCLDY    40  24  53 S6        30.10R
SHOW LOW       PTCLDY    45  16  31 CALM      30.09R
$$

AZZ023-311400-
GREATER PHOENIX AREA

CITY           SKY/WX    TMP DP  RH WIND       PRES   REMARKS
PHOENIX        PTCLDY    70  32  24 E5        29.78R
BUCKEYE        CLEAR     66  27  22 E7        29.80R
GLENDALE       PTCLDY    64  30  27 CALM      29.80
LUKE AFB       CLEAR     66  29  25 E3        29.78R
DEER VALLEY    CLEAR     65  17  15 NE3       29.80R
SCOTTSDALE     CLEAR     67  35  30 CALM      29.81R
MESA-FALCON    PTCLDY   N/A N/A N/A N8        29.78R
MESA-GATEWAY   CLEAR     61  30  31 SE6       29.80S
CHANDLER       CLEAR     64  34  32 CALM      29.80
$$

AZZ027-028-311400-
SOUTHWEST MARICOPA COUNTY AND PINAL COUNTY

CITY           SKY/WX    TMP DP  RH WIND       PRES   REMARKS
CASA GRANDE    CLEAR     63  25  23 N3        29.82R
GILA BEND      FAIR      70  27  20 SE12      29.76R
$$

AZZ503-504-507>509-311400-
SOUTHEAST ARIZONA

CITY           SKY/WX    TMP DP  RH WIND       PRES   REMARKS
TUCSON         CLEAR     62  21  20 SE9       29.89R
DAVIS-MONTHAN  CLEAR     61  19  19 SE8       29.88R
RYAN FIELD     CLEAR     55  25  30 CALM      29.88
NOGALES        CLEAR     53  22  29 CALM      29.94S
SIERRA VISTA   CLEAR     58  25  28 NE2       29.99R
DOUGLAS        CLEAR     60  32  34 SE6       29.97R
SAFFORD        CLEAR     59  19  21 SE3       29.89R
$$

AZZ020-021-025-026-031-311400-
SOUTHWEST ARIZONA

CITY           SKY/WX    TMP DP  RH WIND       PRES   REMARKS
YUMA           PTCLDY    71  45  39 SE5       29.73R
$$

CAZ031-033-041-043-047-048-061-311400-
SOUTHERN CALIFORNIA

CITY           SKY/WX    TMP DP  RH WIND       PRES   REMARKS
DOWNTOWN L.A.  CLOUDY    61  56  83 CALM      29.87S HAZE
L.A. AIRPORT   CLOUDY    60  56  86 CALM      29.88R FOG
SAN DIEGO      CLOUDY    64  56  75 CALM      29.90R
BURBANK        CLOUDY    56  54  93 S5        29.87R
ONTARIO        PTCLDY    56  53  90 CALM      29.88R FOG
RIVERSIDE      CLEAR     58  54  86 CALM      29.88R
PALM SPRINGS   CLEAR     78  50  37 NW5       29.72F
EL CENTRO NAS  PTCLDY    68  44  42 S7        29.72R
IMPERIAL       CLEAR     71  45  39 S5        29.70R
BLYTHE         CLEAR     69  39  33 N6        29.73R
NEEDLES        CLEAR     75  27  17 NW6       29.75R
$$

NVZ020-UTZ003-311400-
SOUTHERN NEVADA-UTAH

CITY           SKY/WX    TMP DP  RH WIND       PRES   REMARKS
LAS VEGAS      PTCLDY    75  33  21 SW6       29.82R
SALT LAKE CITY PTCLDY    57  41  55 SE5       30.07R
$$

NMZ009-TXZ055-311400-
NEW MEXICO-WEST TEXAS

CITY           SKY/WX    TMP DP  RH WIND       PRES   REMARKS
ALBUQUERQUE    MOSUNNY   66  38  35 SE8       30.04R
EL PASO        MOSUNNY   64  58  80 S8        29.96R
$$


........................KEY........................
SKY/WX - SKY CONDITION/WEATHER
TMP    - TEMPERATURE IN FAHRENHEIT
DP     - DEW POINT IN FAHRENHEIT
RH     - RELATIVE HUMIDITY IN PERCENT
WIND   - DIRECTION AND SPEED IN MILES PER HOUR (MPH)
VRB    - VARIABLE WIND DIRECTION
PRES   - MEAN SEA LEVEL PRESSURE IN INCHES OF MERCURY
         F - FALLING PRESSURE   R - RISING PRESSURE
         S - STEADY PRESSURE
VSB    - VISIBILITY IN MILES
HX     - HEAT INDEX IN FAHRENHEIT
WCI    - WIND CHILL INDEX IN FAHRENHEIT
TC     - TEMPERATURE IN CELSIUS WHICH IS ALSO KNOWN AS
         TEMPERATURE IN CENTIGRADE
AFB    - AIR FORCE BASE
         LUKE AFB IS LUKE AIR FORCE BASE
         DAVIS-MONTHAN IS DAVIS-MONTHAN AIR FORCE BASE
NAS    - NAVAL AIR STATION
         EL CENTRO NAS IS EL CENTRO NAVAL AIR STATION
N/A    - NOT AVAILABLE





  [top]

000
ASUS45 KREV 311310
RWRNV
NEVADA REGIONAL WEATHER ROUNDUP
NATIONAL WEATHER SERVICE RENO NV
600 AM PDT TUE MAY 31 2016

NOTE: "FAIR" INDICATES FEW OR NO CLOUDS BELOW 12,000 FEET WITH NO
SIGNIFICANT WEATHER AND/OR OBSTRUCTIONS TO VISIBILITY.

NVZ001-003-004-311400-
WESTERN NEVADA

CITY           SKY/WX    TMP DP  RH WIND       PRES   REMARKS
RENO           PTCLDY    56  41  57 CALM      30.13R
CARSON CITY    FAIR      52  41  66 W5        30.16R
MINDEN         FAIR      39  36  87 CALM      30.15S
FALLON         CLEAR     53  28  38 CALM      30.09R
LOVELOCK       CLEAR     58  27  30 N6        30.10R
HAWTHORNE      CLEAR     59  34  38 CALM      30.10R
$$

NVZ002-CAZ072-073-311400-
NORTHERN AND CENTRAL SIERRA

CITY           SKY/WX    TMP DP  RH WIND       PRES   REMARKS
S. LAKE TAHOE  CLEAR     42  38  85 CALM      30.20S
TRUCKEE        FOG       36  36 100 CALM      30.20S VSB<1/4
SQUAW VLY 8000 NOT AVBL
SUSANVILLE     CLEAR     48  37  66 W5        30.11S
MAMMOTH LAKES  FAIR      44  32  62 N5        30.24S
BRIDGEPORT     FAIR      36  28  73 CALM      30.23S
$$

NVZ030-031-036-311400-
NORTHERN NEVADA

CITY           SKY/WX    TMP DP  RH WIND       PRES   REMARKS
ELKO           CLEAR     41  36  82 S5        30.16S
WINNEMUCCA     PTCLDY    40  29  64 S3        30.14R
WENDOVER       CLEAR     61  25  25 W7        30.10S
$$

NVZ035-037-311400-
CENTRAL NEVADA

CITY           SKY/WX    TMP DP  RH WIND       PRES   REMARKS
ELY            PTCLDY    37  31  78 S9        30.18R
EUREKA           N/A     40  33  76 S5        30.18R
$$

NVZ013-014-311400-
SOUTH CENTRAL NEVADA

CITY           SKY/WX    TMP DP  RH WIND       PRES   REMARKS
TONOPAH        CLEAR     54  28  36 N16       30.13R
$$

NVZ017-020-022-311400-
SOUTHERN NEVADA

CITY           SKY/WX    TMP DP  RH WIND       PRES   REMARKS
LAS VEGAS      PTCLDY    75  33  21 SW6       29.82R
N. LAS VEGAS   CLEAR     77  32  19 NW6       29.84S
NELLIS AFB     CLEAR     73  34  23 W2        29.83R
HENDERSON      CLEAR     68  37  32 S7        29.89R
MERCURY        CLEAR     72  31  22 NE13      29.93R
$$





000
ASUS45 KREV 311210
RWRNV
NEVADA REGIONAL WEATHER ROUNDUP
NATIONAL WEATHER SERVICE RENO NV
500 AM PDT TUE MAY 31 2016

NOTE: "FAIR" INDICATES FEW OR NO CLOUDS BELOW 12,000 FEET WITH NO
SIGNIFICANT WEATHER AND/OR OBSTRUCTIONS TO VISIBILITY.

NVZ001-003-004-311300-
WESTERN NEVADA

CITY           SKY/WX    TMP DP  RH WIND       PRES   REMARKS
RENO           PTCLDY    59  41  51 SW3       30.12S
6HR MIN TEMP:  57; 6HR MAX TEMP:  71;

CARSON CITY    FAIR      48  39  71 CALM      30.14S
MINDEN         FAIR      41  36  81 SE7       30.14S
SLIDE MTN        N/A     46  27  46 NE15        N/A
FALLON         PTCLDY    50  27  40 CALM      30.08R
6HR MIN TEMP:  49; 6HR MAX TEMP:  64;

LOVELOCK       CLEAR     61  27  27 N5        30.09R
6HR MIN TEMP:  56; 6HR MAX TEMP:  68;

HAWTHORNE      CLEAR     63  34  34 CALM      30.09R
$$

NVZ002-CAZ072-073-311300-
NORTHERN AND CENTRAL SIERRA

CITY           SKY/WX    TMP DP  RH WIND       PRES   REMARKS
S. LAKE TAHOE  CLEAR     41  38  89 CALM      30.20S
6HR MIN TEMP:  41; 6HR MAX TEMP:  52;

TRUCKEE        FOG       39  39 100 CALM      30.20S VSB 1/4
SQUAW VLY 8000 NOT AVBL
SUSANVILLE     CLEAR     48  37  66 W6        30.11S
MAMMOTH LAKES  FAIR      44  32  62 NW3       30.24S
6HR MIN TEMP:  44; 6HR MAX TEMP:  52;

BRIDGEPORT     FAIR      37  29  72 CALM      30.23R
$$

NVZ030-031-036-311300-
NORTHERN NEVADA

CITY           SKY/WX    TMP DP  RH WIND       PRES   REMARKS
ELKO           CLEAR     43  36  76 CALM      30.16R
6HR MIN TEMP:  41; 6HR MAX TEMP:  57;

WINNEMUCCA     PTCLDY    38  28  67 SE5       30.13R
6HR MIN TEMP:  37; 6HR MAX TEMP:  64;

WENDOVER       CLEAR     57  28  33 CALM      30.10R
$$

NVZ035-037-311300-
CENTRAL NEVADA

CITY           SKY/WX    TMP DP  RH WIND       PRES   REMARKS
ELY            PTCLDY    38  31  76 S10       30.17R
6HR MIN TEMP:  37; 6HR MAX TEMP:  56;

EUREKA           N/A     40  33  76 S3        30.17S
6HR MIN TEMP:  39; 6HR MAX TEMP:  50;

$$

NVZ013-014-311300-
SOUTH CENTRAL NEVADA

CITY           SKY/WX    TMP DP  RH WIND       PRES   REMARKS
TONOPAH        CLEAR     57  28  33 N14       30.12R
6HR MIN TEMP:  55; 6HR MAX TEMP:  65;

$$

NVZ017-020-022-311300-
SOUTHERN NEVADA

CITY           SKY/WX    TMP DP  RH WIND       PRES   REMARKS
LAS VEGAS      PTCLDY    78  34  20 CALM      29.81R
6HR MIN TEMP:  77; 6HR MAX TEMP:  87;

N. LAS VEGAS   CLEAR     76  33  21 NW6       29.84R
6HR MIN TEMP:  75; 6HR MAX TEMP:  86;

NELLIS AFB     CLEAR     78  33  20 VRB1      29.82R
6HR MIN TEMP:  78; 6HR MAX TEMP:  82;

HENDERSON      CLEAR     68  37  32 SE5       29.88R
6HR MIN TEMP:  68; 6HR MAX TEMP:  81;

MERCURY        CLEAR     73  30  20 NE13      29.91S
6HR MIN TEMP:  71; 6HR MAX TEMP:  76;

$$





000
ASUS45 KPSR 311210
RWRAZ

ARIZONA HOURLY REGIONAL WEATHER ROUNDUP
NATIONAL WEATHER SERVICE PHOENIX AZ
500 AM MST TUE MAY 31 2016

NOTE: FAIR INDICATES FEW OR NO CLOUDS BELOW 12,000 FEET WITH NO
SIGNIFICANT WEATHER AND/OR OBSTRUCTIONS TO VISIBILITY.

AZZ001>003-036-311300-
NORTHWEST ARIZONA

CITY           SKY/WX    TMP DP  RH WIND       PRES   REMARKS
KINGMAN        PTCLDY    58  26  29 CALM      29.90S
6HR MIN TEMP:  58; 6HR MAX TEMP:  67;

$$

AZZ004>008-015-016-018-311300-
NORTH CENTRAL ARIZONA

CITY           SKY/WX    TMP DP  RH WIND       PRES   REMARKS
GRAND CANYON   CLEAR     34  24  67 CALM      30.10S
6HR MIN TEMP:  34; 6HR MAX TEMP:  42;

WILLIAMS       CLEAR     37  25  60 S9        30.17R WCI  31
PRESCOTT       CLEAR     48  24  39 SW5       30.00S
6HR MIN TEMP:  48; 6HR MAX TEMP:  59;

FLAGSTAFF      PTCLDY    32  24  72 CALM      30.11S
6HR MIN TEMP:  32; 6HR MAX TEMP:  45;

PAYSON         CLEAR     52  14  22 CALM      30.02S
PAGE           CLEAR     63  32  31 S3        29.96R
6HR MIN TEMP:  61; 6HR MAX TEMP:  71;

$$

AZZ009>014-017-311300-
NORTHEAST ARIZONA

CITY           SKY/WX    TMP DP  RH WIND       PRES   REMARKS
WINSLOW        CLEAR     48  20  32 CALM      30.00R
6HR MIN TEMP:  48; 6HR MAX TEMP:  64;

SAINT JOHNS    MOCLDY    49  21  33 NW5       30.02F
6HR MIN TEMP:  49; 6HR MAX TEMP:  60;

WINDOW ROCK    PTCLDY    38  23  55 S3        30.09R
6HR MIN TEMP:  38; 6HR MAX TEMP:  60;

SHOW LOW       MOCLDY    45  12  26 CALM      30.08S
$$

AZZ023-311300-
GREATER PHOENIX AREA

CITY           SKY/WX    TMP DP  RH WIND       PRES   REMARKS
PHOENIX        PTCLDY    70  27  20 E9        29.77R
6HR MIN TEMP:  70; 6HR MAX TEMP:  83;

BUCKEYE        CLEAR     68  27  21 E6        29.78S
LUKE AFB       CLEAR     64  27  24 N3        29.77R
6HR MIN TEMP:  63; 6HR MAX TEMP:  77;

DEER VALLEY    CLEAR     67  15  13 N8        29.78R
6HR MIN TEMP:  67; 6HR MAX TEMP:  76;

SCOTTSDALE     CLEAR     67  30  25 CALM      29.80R
6HR MIN TEMP:  66; 6HR MAX TEMP:  77;

MESA-GATEWAY   CLEAR     63  23  22 E8        29.80R
$$

AZZ027-028-311300-
SOUTHWEST MARICOPA COUNTY AND PINAL COUNTY

CITY           SKY/WX    TMP DP  RH WIND       PRES   REMARKS
CASA GRANDE    CLEAR     61  23  23 CALM      29.80S
6HR MIN TEMP:  61; 6HR MAX TEMP:  75;

GILA BEND      FAIR      70  26  19 SE9       29.75S
6HR MIN TEMP:  68; 6HR MAX TEMP:  78;

$$

AZZ503-504-507>509-311300-
SOUTHEAST ARIZONA

CITY           SKY/WX    TMP DP  RH WIND       PRES   REMARKS
TUCSON         CLEAR     62  21  20 SE10      29.88S
6HR MIN TEMP:  62; 6HR MAX TEMP:  74;

DAVIS-MONTHAN  CLEAR     60  19  20 SE10      29.87R
6HR MIN TEMP:  60; 6HR MAX TEMP:  71;

NOGALES        CLEAR     54  20  26 E7        29.94R
6HR MIN TEMP:  52; 6HR MAX TEMP:  63;

SIERRA VISTA   CLEAR     59  22  24 CALM      29.98R
6HR MIN TEMP:  55; 6HR MAX TEMP:  66;

DOUGLAS        CLEAR     62  28  27 SE7       29.96S
6HR MIN TEMP:  57; 6HR MAX TEMP:  67;

SAFFORD        CLEAR     59  18  20 E3        29.88R
6HR MIN TEMP:  57; 6HR MAX TEMP:  75;

$$

AZZ020-021-025-026-031-311300-
SOUTHWEST ARIZONA

CITY           SKY/WX    TMP DP  RH WIND       PRES   REMARKS
YUMA           CLEAR     75  40  28 CALM      29.71S
6HR MIN TEMP:  75; 6HR MAX TEMP:  79;

$$

CAZ031-033-041-043-047-048-061-311300-
SOUTHERN CALIFORNIA

CITY           SKY/WX    TMP DP  RH WIND       PRES   REMARKS
DOWNTOWN L.A.  CLOUDY    61  56  83 CALM      29.87S
6HR MIN TEMP:  60; 6HR MAX TEMP:  61;

L.A. AIRPORT   CLOUDY    60  55  83 CALM      29.87S
6HR MIN TEMP:  59; 6HR MAX TEMP:  60;

SAN DIEGO      CLOUDY    64  56  75 CALM      29.89S
6HR MIN TEMP:  64; 6HR MAX TEMP:  65;

BURBANK        CLOUDY    57  55  93 VRB5      29.86S
6HR MIN TEMP:  56; 6HR MAX TEMP:  60;

ONTARIO        PTCLDY    57  53  86 W3        29.87S FOG
6HR MIN TEMP:  56; 6HR MAX TEMP:  62;

RIVERSIDE      CLEAR     58  54  86 CALM      29.87F
6HR MIN TEMP:  58; 6HR MAX TEMP:  63;

PALM SPRINGS   CLEAR     73  54  51 S3        29.73S
6HR MIN TEMP:  72; 6HR MAX TEMP:  84;

EL CENTRO NAS  CLEAR     70  39  32 SW5       29.70S
6HR MIN TEMP:  70; 6HR MAX TEMP:  84;

IMPERIAL       CLEAR     72  42  34 S3        29.68S
6HR MIN TEMP:  71; 6HR MAX TEMP:  83;

BLYTHE         CLEAR     72  40  31 NW7       29.71R
6HR MIN TEMP:  71; 6HR MAX TEMP:  86;

NEEDLES        CLEAR     76  27  16 NW6       29.73R
6HR MIN TEMP:  75; 6HR MAX TEMP:  91;

$$

NVZ020-UTZ003-311300-
SOUTHERN NEVADA-UTAH

CITY           SKY/WX    TMP DP  RH WIND       PRES   REMARKS
LAS VEGAS      PTCLDY    78  34  20 CALM      29.81R
6HR MIN TEMP:  77; 6HR MAX TEMP:  87;

SALT LAKE CITY PTCLDY    53  41  63 SE5       30.06R
6HR MIN TEMP:  53; 6HR MAX TEMP:  66;

$$

NMZ009-TXZ055-311300-
NEW MEXICO-WEST TEXAS

CITY           SKY/WX    TMP DP  RH WIND       PRES   REMARKS
ALBUQUERQUE    CLOUDY    63  39  41 E3        30.01S
6HR MIN TEMP:  61; 6HR MAX TEMP:  70;

EL PASO        CLOUDY    65  54  67 S9        29.94S
6HR MIN TEMP:  63; 6HR MAX TEMP:  69; 6HR PCP:  0.06;

$$


........................KEY........................
SKY/WX - SKY CONDITION/WEATHER
TMP    - TEMPERATURE IN FAHRENHEIT
DP     - DEW POINT IN FAHRENHEIT
RH     - RELATIVE HUMIDITY IN PERCENT
WIND   - DIRECTION AND SPEED IN MILES PER HOUR (MPH)
VRB    - VARIABLE WIND DIRECTION
PRES   - MEAN SEA LEVEL PRESSURE IN INCHES OF MERCURY
         F - FALLING PRESSURE   R - RISING PRESSURE
         S - STEADY PRESSURE
VSB    - VISIBILITY IN MILES
HX     - HEAT INDEX IN FAHRENHEIT
WCI    - WIND CHILL INDEX IN FAHRENHEIT
TC     - TEMPERATURE IN CELSIUS WHICH IS ALSO KNOWN AS
         TEMPERATURE IN CENTIGRADE
AFB    - AIR FORCE BASE
         LUKE AFB IS LUKE AIR FORCE BASE
         DAVIS-MONTHAN IS DAVIS-MONTHAN AIR FORCE BASE
NAS    - NAVAL AIR STATION
         EL CENTRO NAS IS EL CENTRO NAVAL AIR STATION
N/A    - NOT AVAILABLE






000
ASUS45 KPSR 311110
RWRAZ

ARIZONA HOURLY REGIONAL WEATHER ROUNDUP
NATIONAL WEATHER SERVICE PHOENIX AZ
400 AM MST TUE MAY 31 2016

NOTE: FAIR INDICATES FEW OR NO CLOUDS BELOW 12,000 FEET WITH NO
SIGNIFICANT WEATHER AND/OR OBSTRUCTIONS TO VISIBILITY.

AZZ001>003-036-311200-
NORTHWEST ARIZONA

CITY           SKY/WX    TMP DP  RH WIND       PRES   REMARKS
KINGMAN        PTCLDY    63  27  25 CALM      29.90R
$$

AZZ004>008-015-016-018-311200-
NORTH CENTRAL ARIZONA

CITY           SKY/WX    TMP DP  RH WIND       PRES   REMARKS
GRAND CANYON   CLEAR     35  24  64 CALM      30.10S
WILLIAMS       PTCLDY    39  27  60 S9        30.16S WCI  33
PRESCOTT       CLEAR     49  25  39 S6        30.00S
FLAGSTAFF      PTCLDY    34  25  69 CALM      30.11S
PAYSON         CLEAR     55  12  18 CALM      30.02S
PAGE           CLEAR     62  32  32 CALM      29.95S
$$

AZZ009>014-017-311200-
NORTHEAST ARIZONA

CITY           SKY/WX    TMP DP  RH WIND       PRES   REMARKS
WINSLOW        PTCLDY    52  20  28 CALM      29.99S
SAINT JOHNS    MOCLDY    51  23  33 S8        30.03S
WINDOW ROCK    PTCLDY    44  24  45 CALM      30.08S
SHOW LOW       MOCLDY    45  12  26 CALM      30.08S
$$

AZZ023-311200-
GREATER PHOENIX AREA

CITY           SKY/WX    TMP DP  RH WIND       PRES   REMARKS
PHOENIX        CLEAR     71  31  22 E5        29.75S
BUCKEYE        CLEAR     68  28  22 E6        29.78R
LUKE AFB       CLEAR     65  28  24 NW5       29.76R
DEER VALLEY    CLEAR     70  16  12 NE10      29.77F
SCOTTSDALE     CLEAR     67  28  23 CALM      29.79S
MESA-GATEWAY   CLEAR     63  27  25 E8        29.79R
$$

AZZ027-028-311200-
SOUTHWEST MARICOPA COUNTY AND PINAL COUNTY

CITY           SKY/WX    TMP DP  RH WIND       PRES   REMARKS
CASA GRANDE    CLEAR     61  19  20 CALM      29.80S
GILA BEND      FAIR      70  23  17 SE9       29.75R
$$

AZZ503-504-507>509-311200-
SOUTHEAST ARIZONA

CITY           SKY/WX    TMP DP  RH WIND       PRES   REMARKS
TUCSON         CLEAR     63  22  20 SE8       29.88R
DAVIS-MONTHAN  CLEAR     62  18  18 S5        29.86S
NOGALES        CLEAR     52  20  28 NE3       29.93S
SIERRA VISTA   CLEAR     56  22  26 SW1       29.97S
DOUGLAS        CLEAR     57  28  33 E6        29.96R
SAFFORD        CLEAR     60  18  19 CALM      29.87R
$$

AZZ020-021-025-026-031-311200-
SOUTHWEST ARIZONA

CITY           SKY/WX    TMP DP  RH WIND       PRES   REMARKS
YUMA           CLEAR     76  38  25 SE6       29.71S
$$

CAZ031-033-041-043-047-048-061-311200-
SOUTHERN CALIFORNIA

CITY           SKY/WX    TMP DP  RH WIND       PRES   REMARKS
DOWNTOWN L.A.  CLOUDY    60  56  86 CALM      29.87F
L.A. AIRPORT   CLOUDY    59  55  88 NW3       29.87F
SAN DIEGO      CLOUDY    64  56  75 CALM      29.89S
BURBANK        CLOUDY    56  55  97 SE5       29.87S
ONTARIO        PTCLDY    57  53  86 SW3       29.87F FOG
RIVERSIDE      CLEAR     59  54  83 CALM      29.88S
PALM SPRINGS   CLEAR     75  53  46 CALM      29.73F
EL CENTRO NAS  CLEAR     76  41  28 W3        29.70S
IMPERIAL       CLEAR     73  46  38 SW3       29.68R
BLYTHE         CLEAR     77  44  30 S7        29.70S
NEEDLES        PTCLDY    80  26  13 NW3       29.72S
$$

NVZ020-UTZ003-311200-
SOUTHERN NEVADA-UTAH

CITY           SKY/WX    TMP DP  RH WIND       PRES   REMARKS
LAS VEGAS      PTCLDY    79  31  17 N9        29.80R
SALT LAKE CITY CLEAR     55  41  59 NE3       30.05S
$$

NMZ009-TXZ055-311200-
NEW MEXICO-WEST TEXAS

CITY           SKY/WX    TMP DP  RH WIND       PRES   REMARKS
ALBUQUERQUE    CLOUDY    61  36  39 E3        30.01R
EL PASO        TSTM      65  55  70 S15G23    29.94F
$$


........................KEY........................
SKY/WX - SKY CONDITION/WEATHER
TMP    - TEMPERATURE IN FAHRENHEIT
DP     - DEW POINT IN FAHRENHEIT
RH     - RELATIVE HUMIDITY IN PERCENT
WIND   - DIRECTION AND SPEED IN MILES PER HOUR (MPH)
VRB    - VARIABLE WIND DIRECTION
PRES   - MEAN SEA LEVEL PRESSURE IN INCHES OF MERCURY
         F - FALLING PRESSURE   R - RISING PRESSURE
         S - STEADY PRESSURE
VSB    - VISIBILITY IN MILES
HX     - HEAT INDEX IN FAHRENHEIT
WCI    - WIND CHILL INDEX IN FAHRENHEIT
TC     - TEMPERATURE IN CELSIUS WHICH IS ALSO KNOWN AS
         TEMPERATURE IN CENTIGRADE
AFB    - AIR FORCE BASE
         LUKE AFB IS LUKE AIR FORCE BASE
         DAVIS-MONTHAN IS DAVIS-MONTHAN AIR FORCE BASE
NAS    - NAVAL AIR STATION
         EL CENTRO NAS IS EL CENTRO NAVAL AIR STATION
N/A    - NOT AVAILABLE






000
ASUS45 KREV 311110
RWRNV
NEVADA REGIONAL WEATHER ROUNDUP
NATIONAL WEATHER SERVICE RENO NV
400 AM PDT TUE MAY 31 2016

NOTE: "FAIR" INDICATES FEW OR NO CLOUDS BELOW 12,000 FEET WITH NO
SIGNIFICANT WEATHER AND/OR OBSTRUCTIONS TO VISIBILITY.

NVZ001-003-004-311200-
WESTERN NEVADA

CITY           SKY/WX    TMP DP  RH WIND       PRES   REMARKS
RENO           CLEAR     58  42  55 CALM      30.12S
CARSON CITY    FAIR      52  39  62 CALM      30.14S
MINDEN         FAIR      43  36  75 SE6       30.14R
SLIDE MTN        N/A     46  28  49 N13         N/A
FALLON         CLEAR     57  26  30 CALM      30.07S
LOVELOCK       CLEAR     62  27  26 NE8       30.08R
HAWTHORNE      CLEAR     55  32  41 CALM      30.08R
$$

NVZ002-CAZ072-073-311200-
NORTHERN AND CENTRAL SIERRA

CITY           SKY/WX    TMP DP  RH WIND       PRES   REMARKS
S. LAKE TAHOE  CLEAR     43  39  86 S3        30.20S
TRUCKEE        PTCLDY    41  41 100 CALM      30.20S FOG
SQUAW VLY 8000 NOT AVBL
SUSANVILLE     CLEAR     52  37  58 W5        30.11S
MAMMOTH LAKES  FAIR      45  32  59 NW5       30.24S
BRIDGEPORT     FAIR      39  30  70 CALM      30.22S
$$

NVZ030-031-036-311200-
NORTHERN NEVADA

CITY           SKY/WX    TMP DP  RH WIND       PRES   REMARKS
ELKO           CLEAR     46  36  68 CALM      30.15R
WINNEMUCCA     CLEAR     43  28  55 S5        30.12R
WENDOVER       CLEAR     59  28  31 E6        30.09S
$$

NVZ035-037-311200-
CENTRAL NEVADA

CITY           SKY/WX    TMP DP  RH WIND       PRES   REMARKS
ELY            CLEAR     39  31  72 S9        30.16S
EUREKA           N/A     44  34  67 S5        30.17S
$$

NVZ013-014-311200-
SOUTH CENTRAL NEVADA

CITY           SKY/WX    TMP DP  RH WIND       PRES   REMARKS
TONOPAH        CLEAR     57  28  33 N10       30.11S
$$

NVZ017-020-022-311200-
SOUTHERN NEVADA

CITY           SKY/WX    TMP DP  RH WIND       PRES   REMARKS
LAS VEGAS      PTCLDY    79  31  17 N9        29.80R
N. LAS VEGAS   CLEAR     77  33  20 N6        29.83R
NELLIS AFB     CLEAR     79  34  19 E10       29.81R
HENDERSON      CLEAR     70  38  31 VRB6      29.87R
MERCURY        CLEAR     75  29  18 NE15      29.91R
$$





000
ASUS45 KPSR 311010
RWRAZ

ARIZONA HOURLY REGIONAL WEATHER ROUNDUP
NATIONAL WEATHER SERVICE PHOENIX AZ
300 AM MST TUE MAY 31 2016

NOTE: FAIR INDICATES FEW OR NO CLOUDS BELOW 12,000 FEET WITH NO
SIGNIFICANT WEATHER AND/OR OBSTRUCTIONS TO VISIBILITY.

AZZ001>003-036-311100-
NORTHWEST ARIZONA

CITY           SKY/WX    TMP DP  RH WIND       PRES   REMARKS
KINGMAN        PTCLDY    64  27  24 W3        29.89F
$$

AZZ004>008-015-016-018-311100-
NORTH CENTRAL ARIZONA

CITY           SKY/WX    TMP DP  RH WIND       PRES   REMARKS
GRAND CANYON   PTCLDY    35  24  64 NE5       30.10F WCI  31
WILLIAMS       CLEAR     39  27  60 S10       30.16F WCI  32
PRESCOTT       CLEAR     52  24  33 SW3       30.00S
FLAGSTAFF      PTCLDY    35  25  66 CALM      30.11S
PAYSON         CLEAR     55  10  16 CALM      30.01F
PAGE           CLEAR     64  31  28 CALM      29.95R
$$

AZZ009>014-017-311100-
NORTHEAST ARIZONA

CITY           SKY/WX    TMP DP  RH WIND       PRES   REMARKS
WINSLOW        PTCLDY    55  18  23 E5        29.99R HAZE
SAINT JOHNS    MOCLDY    53  23  31 SW9       30.03S
WINDOW ROCK    PTCLDY    47  24  40 CALM      30.08S
SHOW LOW       PTCLDY    45  14  29 S5        30.07F
$$

AZZ023-311100-
GREATER PHOENIX AREA

CITY           SKY/WX    TMP DP  RH WIND       PRES   REMARKS
PHOENIX        CLEAR     74  29  19 CALM      29.75S
BUCKEYE        CLEAR     68  27  21 NE5       29.77S
LUKE AFB       CLEAR     66  27  23 NW6       29.75F
DEER VALLEY    CLEAR     70  16  12 NE13      29.78S
SCOTTSDALE     CLEAR     69  30  23 CALM      29.79F
MESA-GATEWAY   CLEAR     63  34  34 SE7       29.78F
$$

AZZ027-028-311100-
SOUTHWEST MARICOPA COUNTY AND PINAL COUNTY

CITY           SKY/WX    TMP DP  RH WIND       PRES   REMARKS
CASA GRANDE    CLEAR     63  21  20 CALM      29.80R
GILA BEND      FAIR      69  23  18 S7        29.74F
$$

AZZ503-504-507>509-311100-
SOUTHEAST ARIZONA

CITY           SKY/WX    TMP DP  RH WIND       PRES   REMARKS
TUCSON         CLEAR     66  20  17 S7        29.87F
DAVIS-MONTHAN  CLEAR     62  17  17 SE8       29.86S
NOGALES        CLEAR     56  19  23 CALM      29.93S
SIERRA VISTA   CLEAR     58  21  24 SW8       29.97F
DOUGLAS        CLEAR     60  27  28 E6        29.95S
SAFFORD        CLEAR     61  19  19 SE6       29.86S
$$

AZZ020-021-025-026-031-311100-
SOUTHWEST ARIZONA

CITY           SKY/WX    TMP DP  RH WIND       PRES   REMARKS
YUMA           CLEAR     76  39  26 CALM      29.71S
$$

CAZ031-033-041-043-047-048-061-311100-
SOUTHERN CALIFORNIA

CITY           SKY/WX    TMP DP  RH WIND       PRES   REMARKS
DOWNTOWN L.A.  CLOUDY    60  55  83 CALM      29.88S
L.A. AIRPORT   CLOUDY    59  55  87 CALM      29.88S
SAN DIEGO      CLOUDY    64  56  75 CALM      29.89F
BURBANK        CLEAR     57  54  89 S5        29.87S
ONTARIO        PTCLDY    58  53  84 SW5       29.88S HAZE
RIVERSIDE      CLEAR     59  54  83 CALM      29.88F
PALM SPRINGS   CLEAR     77  53  43 SE3       29.74S
EL CENTRO NAS  CLEAR     73  40  30 W7        29.70S
IMPERIAL       CLEAR     73  45  36 W5        29.67F
BLYTHE         CLEAR     77  45  32 S13       29.70F
NEEDLES        PTCLDY    80  27  14 CALM      29.72S
$$

NVZ020-UTZ003-311100-
SOUTHERN NEVADA-UTAH

CITY           SKY/WX    TMP DP  RH WIND       PRES   REMARKS
LAS VEGAS      PTCLDY    79  33  19 NW5       29.78R
SALT LAKE CITY CLEAR     57  41  55 CALM      30.05S
$$

NMZ009-TXZ055-311100-
NEW MEXICO-WEST TEXAS

CITY           SKY/WX    TMP DP  RH WIND       PRES   REMARKS
ALBUQUERQUE    PTCLDY    66  35  31 SW8       30.00R
EL PASO        LGT RAIN  64  58  80 S21       29.98R
$$


........................KEY........................
SKY/WX - SKY CONDITION/WEATHER
TMP    - TEMPERATURE IN FAHRENHEIT
DP     - DEW POINT IN FAHRENHEIT
RH     - RELATIVE HUMIDITY IN PERCENT
WIND   - DIRECTION AND SPEED IN MILES PER HOUR (MPH)
VRB    - VARIABLE WIND DIRECTION
PRES   - MEAN SEA LEVEL PRESSURE IN INCHES OF MERCURY
         F - FALLING PRESSURE   R - RISING PRESSURE
         S - STEADY PRESSURE
VSB    - VISIBILITY IN MILES
HX     - HEAT INDEX IN FAHRENHEIT
WCI    - WIND CHILL INDEX IN FAHRENHEIT
TC     - TEMPERATURE IN CELSIUS WHICH IS ALSO KNOWN AS
         TEMPERATURE IN CENTIGRADE
AFB    - AIR FORCE BASE
         LUKE AFB IS LUKE AIR FORCE BASE
         DAVIS-MONTHAN IS DAVIS-MONTHAN AIR FORCE BASE
NAS    - NAVAL AIR STATION
         EL CENTRO NAS IS EL CENTRO NAVAL AIR STATION
N/A    - NOT AVAILABLE






    US Dept of Commerce
    National Oceanic and Atmospheric Administration
    National Weather Service
    1325 East West Highway
    Silver Spring, MD 20910
    Page Author: NWS Internet Services Team
Disclaimer
Information Quality
Credits
Glossary
Privacy Policy
Freedom of Information Act (FOIA)
About Us
Career Opportunities